Location: Mount Kobau Star Party
(49.1167°N, 119.7333°W)
Time: 19:13:30
(UTC-07:00)

Envisat - Pass Details

Date: 17 April 2026
Orbit: 761 x 762 km, 98.4° (Epoch: 15 May)

Event Time Altitude Azimuth Distance (km) Brightness Sun altitude
Rises 03:03:13 0° 20° (NNE) 3,233 7.5 -24.3°
Reaches altitude 10° 03:05:41 10° 29° (NNE) 2,302 6.5 -24.1°
Maximum altitude 03:10:23 37° 97° (E) 1,162 4.1 -23.7°
Enters shadow 03:12:38 25° 145° (SE) 1,498 4.3 -23.4°
